Main page
METAR-TAF:

METAR-TAF

Airports :

Chandigarh International Airport

Chandigarh, India

latitude: 30-40-29N, longitude: 76-47-26E, elevation: 314 m

Current weather observation

The report was made 10 hours and 14 minutes ago, at 08:30 UTC
Wind 10 kt from the Southeast
Temperature 25°C
Humidity 39%
Pressure 1017 hPa
Visibility: 6000 m
Clear sky

METAR: VICG 190830Z 14010KT 6000 SKC 25/10 Q1017 NOSIG

Time: 00:14 (18:44 UTC)


TAF: missing

Weather observations and forecasts of more than 4000 airports (METAR and TAF reports).

The available stations are represented by yellow and red dots on the map.

Hover mouse over dot to see the name of the station.

Then click to see weather observations and forecasts.

To change the map : click on the green buttons with a black cross to zoom in, on the green button with a dash to zoom out, or on the green arrows for adjacent maps.


METAR-TAF: